AAL1538 KDFW-KMFE

Flight info

Callsign AAL1538
Flight time N/A
Altitude 38000
Route NELYN6 SAT J21 LRD ELIZA V17 FATOR
Aircraft B738/M-SDE2E3FGHIRWXY/LB1

Departure

Time 2026-04-30 10:51
Airport Dallas Fort Worth International Airport (KDFW)

Arrival

Time N/A
Airport McAllen Miller International Airport (KMFE)
Time Latitude Longitude Altitude Speed Heading
2026-04-30 10:31 32.89930 -97.03561 614 ft 0 kts 244°
2026-04-30 10:37 32.89937 -97.03545 619 ft 4 kts 244°
2026-04-30 10:37 32.89946 -97.03522 620 ft 4 kts 240°
2026-04-30 10:38 32.89960 -97.03503 614 ft 4 kts 173°
2026-04-30 10:38 32.89980 -97.03517 614 ft 4 kts 142°
2026-04-30 10:38 32.89988 -97.03525 622 ft 0 kts 142°
2026-04-30 10:42 32.89988 -97.03524 614 ft 1 kts 142°
2026-04-30 10:42 32.89938 -97.03477 621 ft 15 kts 141°
2026-04-30 10:43 32.89879 -97.03419 614 ft 16 kts 137°
2026-04-30 10:43 32.89792 -97.03336 625 ft 16 kts 154°
2026-04-30 10:43 32.89687 -97.03316 622 ft 15 kts 180°
2026-04-30 10:43 32.89581 -97.03317 623 ft 16 kts 180°
2026-04-30 10:44 32.89451 -97.03317 619 ft 22 kts 180°
2026-04-30 10:44 32.89288 -97.03317 615 ft 23 kts 180°
2026-04-30 10:44 32.89130 -97.03317 618 ft 22 kts 180°
2026-04-30 10:44 32.88982 -97.03320 619 ft 21 kts 180°
2026-04-30 10:45 32.88839 -97.03322 623 ft 20 kts 179°
2026-04-30 10:45 32.88700 -97.03321 625 ft 20 kts 180°
2026-04-30 10:45 32.88566 -97.03322 626 ft 19 kts 180°
2026-04-30 10:45 32.88495 -97.03376 616 ft 11 kts 268°
2026-04-30 10:46 32.88496 -97.03506 624 ft 22 kts 270°
2026-04-30 10:46 32.88497 -97.03697 623 ft 23 kts 270°
2026-04-30 10:46 32.88498 -97.03884 615 ft 22 kts 270°
2026-04-30 10:46 32.88498 -97.04066 619 ft 22 kts 269°
2026-04-30 10:47 32.88500 -97.04243 627 ft 21 kts 270°
2026-04-30 10:47 32.88501 -97.04415 615 ft 20 kts 271°
2026-04-30 10:47 32.88500 -97.04582 622 ft 20 kts 271°
2026-04-30 10:47 32.88502 -97.04743 619 ft 19 kts 268°
2026-04-30 10:48 32.88426 -97.04814 620 ft 16 kts 171°
2026-04-30 10:48 32.88301 -97.04809 621 ft 22 kts 180°
2026-04-30 10:48 32.88145 -97.04809 625 ft 22 kts 180°
2026-04-30 10:48 32.87991 -97.04810 616 ft 22 kts 180°
2026-04-30 10:49 32.87908 -97.04836 618 ft 8 kts 239°
2026-04-30 10:49 32.87906 -97.04914 627 ft 14 kts 270°
2026-04-30 10:49 32.87906 -97.05042 615 ft 16 kts 269°
2026-04-30 10:49 32.87907 -97.05169 615 ft 15 kts 270°
2026-04-30 10:50 32.87908 -97.05290 623 ft 14 kts 270°
2026-04-30 10:50 32.87908 -97.05411 618 ft 15 kts 270°
2026-04-30 10:50 32.87957 -97.05485 620 ft 12 kts
2026-04-30 10:50 32.88127 -97.05482 622 ft 53 kts
2026-04-30 10:51 32.88737 -97.05479 617 ft 120 kts
2026-04-30 10:51 32.89752 -97.05474 679 ft 166 kts
2026-04-30 10:51 32.90935 -97.05479 1304 ft 172 kts 360°
2026-04-30 10:51 32.92128 -97.05508 2042 ft 177 kts 360°
2026-04-30 10:52 32.93459 -97.05542 2367 ft 205 kts 360°
2026-04-30 10:52 32.94950 -97.05737 2597 ft 229 kts 347°
2026-04-30 10:52 32.96501 -97.06352 3094 ft 239 kts 346°
2026-04-30 10:52 32.98095 -97.06969 3789 ft 241 kts 346°
2026-04-30 10:53 32.99645 -97.07806 4379 ft 256 kts 324°
2026-04-30 10:53 33.00721 -97.09528 5085 ft 267 kts 292°
2026-04-30 10:53 33.01056 -97.11713 5923 ft 271 kts 270°
2026-04-30 10:53 33.00939 -97.13958 6756 ft 273 kts 266°
2026-04-30 10:54 33.00783 -97.16216 7604 ft 274 kts 266°
2026-04-30 10:54 33.00578 -97.18503 8264 ft 283 kts 264°
2026-04-30 10:54 33.00327 -97.20860 8921 ft 290 kts 263°
2026-04-30 10:54 32.99978 -97.23229 9695 ft 293 kts 251°
2026-04-30 10:55 32.98916 -97.25299 10498 ft 298 kts 232°
2026-04-30 10:55 32.97422 -97.27141 10777 ft 320 kts 226°
2026-04-30 10:55 32.95568 -97.28780 10925 ft 349 kts 207°
2026-04-30 10:55 32.93135 -97.29383 11317 ft 369 kts 185°
2026-04-30 10:56 32.90542 -97.29280 11940 ft 375 kts 181°
2026-04-30 10:56 32.87925 -97.29076 12623 ft 378 kts 181°
2026-04-30 10:56 32.85292 -97.28876 13286 ft 381 kts 182°
2026-04-30 10:56 32.82638 -97.28708 13969 ft 383 kts 182°
2026-04-30 10:57 32.79961 -97.28559 14650 ft 386 kts 183°
2026-04-30 10:57 32.77264 -97.28395 15323 ft 391 kts 181°
2026-04-30 10:57 32.74548 -97.27983 15962 ft 398 kts 176°
2026-04-30 10:57 32.71796 -97.27412 16614 ft 402 kts 175°
2026-04-30 10:58 32.69040 -97.26798 17245 ft 405 kts 175°
2026-04-30 10:58 32.66252 -97.26183 17846 ft 409 kts 176°
2026-04-30 10:58 32.63440 -97.25582 18405 ft 413 kts 176°
2026-04-30 10:58 32.60600 -97.24993 18974 ft 416 kts 177°
2026-04-30 10:59 32.57738 -97.24412 19539 ft 419 kts 177°
2026-04-30 10:59 32.54857 -97.23834 20088 ft 421 kts 178°
2026-04-30 10:59 32.51952 -97.23256 20628 ft 424 kts 178°
2026-04-30 10:59 32.49030 -97.22675 21138 ft 427 kts 178°
2026-04-30 11:00 32.46084 -97.22090 21600 ft 431 kts 178°
2026-04-30 11:00 32.43119 -97.21500 22076 ft 434 kts 178°
2026-04-30 11:00 32.40136 -97.20906 22532 ft 436 kts 178°
2026-04-30 11:00 32.37137 -97.20309 22970 ft 439 kts 178°
2026-04-30 11:01 32.34112 -97.19708 23392 ft 441 kts 178°
2026-04-30 11:01 32.31076 -97.19106 23796 ft 444 kts 179°
2026-04-30 11:01 32.28027 -97.18604 24179 ft 438 kts 186°
2026-04-30 11:01 32.25038 -97.18885 24550 ft 429 kts 195°
2026-04-30 11:02 32.22069 -97.19337 24912 ft 432 kts 195°
2026-04-30 11:02 32.19077 -97.19791 25226 ft 435 kts 196°
2026-04-30 11:02 32.16062 -97.20234 25565 ft 438 kts 195°
2026-04-30 11:02 32.13033 -97.20661 25895 ft 440 kts 195°
2026-04-30 11:03 32.09989 -97.21079 26250 ft 441 kts 195°
2026-04-30 11:03 32.06926 -97.21491 26556 ft 444 kts 195°
2026-04-30 11:03 32.03847 -97.21902 26851 ft 447 kts 195°
2026-04-30 11:04 31.97645 -97.22726 27424 ft 451 kts 195°
2026-04-30 11:04 31.94510 -97.23145 27596 ft 456 kts 195°
2026-04-30 11:04 31.91344 -97.23567 27859 ft 458 kts 195°
2026-04-30 11:04 31.88176 -97.23986 28168 ft 459 kts 195°
2026-04-30 11:05 31.85002 -97.24407 28418 ft 460 kts 195°
2026-04-30 11:05 31.81806 -97.24833 28636 ft 463 kts 195°
2026-04-30 11:05 31.78600 -97.25261 28862 ft 465 kts 195°
2026-04-30 11:05 31.75382 -97.25688 29106 ft 466 kts 195°
2026-04-30 11:06 31.72156 -97.26115 29361 ft 467 kts 195°
2026-04-30 11:06 31.68925 -97.26543 29638 ft 468 kts 196°
2026-04-30 11:06 31.65722 -97.27076 29916 ft 458 kts 204°
2026-04-30 11:06 31.62798 -97.28347 30238 ft 444 kts 212°
2026-04-30 11:07 31.59956 -97.29760 30626 ft 442 kts 212°
2026-04-30 11:07 31.57115 -97.31153 30920 ft 444 kts 212°
2026-04-30 11:07 31.54261 -97.32530 31231 ft 444 kts 211°
2026-04-30 11:07 31.51405 -97.33887 31588 ft 442 kts 211°
2026-04-30 11:08 31.48551 -97.35233 31950 ft 441 kts 211°
2026-04-30 11:08 31.45707 -97.36569 32276 ft 440 kts 211°
2026-04-30 11:08 31.42864 -97.37905 32535 ft 441 kts 211°
2026-04-30 11:08 31.40015 -97.39243 32825 ft 441 kts 211°
2026-04-30 11:09 31.37168 -97.40579 33169 ft 440 kts 211°
2026-04-30 11:09 31.34324 -97.41914 33385 ft 441 kts 211°
2026-04-30 11:09 31.31472 -97.43253 33646 ft 442 kts 211°
2026-04-30 11:09 31.28624 -97.44587 33990 ft 440 kts 212°
2026-04-30 11:10 31.25781 -97.45917 34312 ft 439 kts 212°
2026-04-30 11:10 31.22949 -97.47242 34583 ft 439 kts 212°
2026-04-30 11:10 31.20114 -97.48567 34840 ft 439 kts 212°
2026-04-30 11:10 31.17287 -97.49886 35161 ft 437 kts 212°
2026-04-30 11:11 31.14470 -97.51199 35479 ft 435 kts 212°
2026-04-30 11:11 31.11655 -97.52512 35736 ft 435 kts 212°
2026-04-30 11:11 31.08847 -97.53822 35975 ft 435 kts 212°
2026-04-30 11:11 31.06043 -97.55129 36256 ft 434 kts 212°
2026-04-30 11:12 31.03247 -97.56432 36495 ft 433 kts 212°
2026-04-30 11:12 31.00451 -97.57735 36690 ft 433 kts 212°
2026-04-30 11:12 30.97655 -97.59035 36997 ft 431 kts 212°
2026-04-30 11:12 30.94887 -97.60319 37384 ft 426 kts 212°
2026-04-30 11:13 30.92147 -97.61587 37739 ft 422 kts 212°
2026-04-30 11:13 30.89426 -97.62850 37982 ft 420 kts 212°
2026-04-30 11:13 30.86705 -97.64116 37968 ft 422 kts 212°
2026-04-30 11:14 30.81243 -97.66653 37986 ft 422 kts 212°
2026-04-30 11:14 30.75799 -97.69173 37993 ft 420 kts 212°
2026-04-30 11:15 30.70367 -97.71686 37991 ft 419 kts 212°
2026-04-30 11:15 30.64951 -97.74190 37990 ft 419 kts 212°
2026-04-30 11:16 30.59529 -97.76691 37993 ft 419 kts 211°
2026-04-30 11:16 30.54412 -97.79710 38004 ft 409 kts 221°
2026-04-30 11:17 30.49673 -97.83324 37980 ft 407 kts 223°
2026-04-30 11:17 30.44954 -97.86977 37983 ft 409 kts 222°
2026-04-30 11:18 30.40161 -97.90556 37958 ft 410 kts 221°
2026-04-30 11:18 30.32937 -97.95889 37979 ft 411 kts 221°
2026-04-30 11:19 30.28111 -97.99447 37970 ft 412 kts 221°
2026-04-30 11:19 30.23283 -98.03006 37965 ft 412 kts 221°
2026-04-30 11:20 30.18436 -98.06579 37962 ft 413 kts 221°
2026-04-30 11:20 30.13590 -98.10144 37956 ft 413 kts 221°
2026-04-30 11:21 30.08733 -98.13712 37958 ft 414 kts 221°
2026-04-30 11:21 30.03883 -98.17270 37957 ft 413 kts 221°
2026-04-30 11:22 29.99030 -98.20828 37949 ft 413 kts 221°
2026-04-30 11:22 29.94185 -98.24375 37943 ft 412 kts 221°
2026-04-30 11:23 29.89338 -98.27920 37940 ft 412 kts 221°
2026-04-30 11:24 29.82088 -98.33215 37945 ft 411 kts 221°
2026-04-30 11:24 29.78072 -98.36143 37949 ft 411 kts 220°
2026-04-30 11:25 29.70832 -98.41420 37949 ft 411 kts 220°
2026-04-30 11:26 29.60843 -98.47951 37968 ft 422 kts 211°
2026-04-30 11:26 29.55328 -98.50355 37959 ft 425 kts 209°
2026-04-30 11:27 29.49791 -98.52741 37948 ft 425 kts 210°
2026-04-30 11:27 29.44278 -98.55177 37946 ft 425 kts 210°
2026-04-30 11:28 29.36004 -98.58886 37918 ft 426 kts 210°
2026-04-30 11:29 29.30508 -98.61358 37907 ft 427 kts 210°
2026-04-30 11:29 29.22182 -98.65094 37915 ft 426 kts 210°
2026-04-30 11:30 29.13938 -98.68782 37930 ft 426 kts 210°
2026-04-30 11:31 29.08385 -98.71265 37934 ft 425 kts 210°
2026-04-30 11:31 29.02874 -98.73727 37938 ft 425 kts 210°
2026-04-30 11:32 28.97362 -98.76183 37949 ft 425 kts 210°
2026-04-30 11:32 28.91839 -98.78643 37946 ft 426 kts 210°
2026-04-30 11:33 28.83546 -98.82332 37938 ft 427 kts 210°
2026-04-30 11:33 28.78009 -98.84792 37940 ft 428 kts 210°
2026-04-30 11:34 28.72461 -98.87254 37931 ft 428 kts 210°
2026-04-30 11:34 28.66897 -98.89720 37925 ft 429 kts 210°
2026-04-30 11:35 28.61330 -98.92185 37921 ft 430 kts 210°
2026-04-30 11:35 28.55751 -98.94651 37913 ft 430 kts 210°
2026-04-30 11:36 28.50173 -98.97114 37908 ft 430 kts 210°
2026-04-30 11:36 28.44591 -98.99574 37907 ft 430 kts 210°
2026-04-30 11:37 28.39017 -99.02029 37899 ft 430 kts 209°
2026-04-30 11:37 28.33441 -99.04486 37900 ft 429 kts 210°
2026-04-30 11:38 28.27874 -99.06935 37897 ft 429 kts 209°
2026-04-30 11:38 28.22311 -99.09376 37899 ft 429 kts 210°
2026-04-30 11:39 28.16748 -99.11818 37902 ft 428 kts 209°
2026-04-30 11:39 28.11194 -99.14253 37888 ft 427 kts 209°
2026-04-30 11:40 28.08457 -99.15446 37864 ft 413 kts 209°
2026-04-30 11:40 28.05819 -99.16588 37866 ft 399 kts 210°
2026-04-30 11:40 28.03271 -99.17694 37857 ft 386 kts 210°
2026-04-30 11:40 28.00814 -99.18762 37857 ft 371 kts 210°
2026-04-30 11:41 27.96053 -99.20849 37894 ft 369 kts 210°
2026-04-30 11:41 27.91200 -99.22990 37888 ft 380 kts 210°
2026-04-30 11:42 27.86201 -99.25178 37894 ft 390 kts 210°
2026-04-30 11:42 27.81111 -99.27394 37880 ft 394 kts 209°
2026-04-30 11:43 27.75982 -99.29622 37858 ft 393 kts 209°
2026-04-30 11:43 27.70949 -99.31803 37860 ft 383 kts 210°
2026-04-30 11:44 27.65967 -99.33966 37865 ft 384 kts 210°
2026-04-30 11:44 27.60982 -99.36132 37861 ft 384 kts 210°
2026-04-30 11:45 27.55986 -99.38301 37870 ft 385 kts 209°
2026-04-30 11:45 27.52669 -99.39734 37863 ft 386 kts 209°